#timestamp,LO_Frequency,Hit 
1502251215.3,286047071.5,N
1502251235.2,286047072.8,N
1502251255.0,286047073.4,N
1502251255.9,286047073.4,N
1502251275.7,286047072.2,N
1502251295.6,286047072.9,N
1502251315.4,286047074.2,N
1502251335.2,286047075.1,N
1502251355.1,286047072.2,N
1502251356.0,286047072.2,N
1502251375.8,286047073.0,N
1502251395.6,286047073.0,N
1502251415.5,286047072.3,N
1502251435.3,286047072.2,N
1502251455.1,286047072.7,N
1502251475.9,286047071.4,N
1502251495.7,286047070.4,N
1502251515.5,286047070.7,N
1502251535.3,286047073.0,N
1502251555.2,286047070.3,N
1502251575.0,286047071.2,N
1502251575.9,286047071.2,N
1502251595.7,286047069.3,N
1502251615.6,286047067.8,N
1502251635.4,286047065.7,N
1502251655.2,286047067.8,N
1502251675.1,286047068.8,N
1502251676.0,286047068.8,N
1502251695.8,286047068.5,N
1502251715.8,286047072.4,N
1502251735.6,286047070.4,N
1502251755.5,286047070.2,N
1502251775.3,286047072.3,N
1502251795.1,286047072.2,N
1502251815.9,286047071.8,N
1502251835.7,286047073.6,N
1502251855.5,286047075.0,N
1502251875.4,286047075.5,N
1502251895.2,286047077.9,N
1502251915.0,286047077.7,N
1502251915.9,286047077.7,N
1502251935.8,286047075.8,N
1502251955.6,286047075.7,N
1502251975.4,286047073.7,N
1502251995.2,286047075.8,N
1502252015.1,286047072.2,N
1502252016.0,286047072.2,N
1502252035.8,286047072.1,N
1502252055.6,286047072.1,N
1502252075.5,286047073.9,N
1502252095.3,286047078.0,N
1502252115.9,286047075.1,N
1502252135.7,286047074.9,N
1502252155.5,286047076.4,N
1502252175.4,286047073.8,N
1502252195.2,286047075.0,N
1502252215.0,286047075.2,N
1502252215.9,286047075.2,N
1502252235.8,286047078.0,N
1502252255.6,286047076.5,N
1502252275.4,286047074.9,N
1502252295.3,286047075.5,N
1502252315.1,286047078.0,N
1502252316.0,286047078.0,N
1502252335.8,286047075.6,N
1502252355.7,286047077.9,N
1502252375.5,286047076.7,N
1502252395.3,286047077.0,N
1502252415.1,286047078.6,N
1502252435.9,286047076.8,N
1502252455.7,286047075.2,N
1502252475.5,286047075.4,N
1502252495.4,286047078.0,N
1502252515.2,286047077.2,N
1502252535.0,286047079.1,N
1502252535.9,286047079.1,N
1502252555.8,286047078.9,N
1502252575.6,286047080.4,N
1502252595.4,286047081.1,N
1502252615.3,286047078.8,N
1502252635.1,286047079.9,N
1502252636.0,286047079.9,N
1502252655.8,286047079.8,N
1502252675.7,286047080.7,N
1502252695.5,286047080.9,N
1502252715.3,286047081.1,N
1502252735.1,286047080.8,N
1502252755.9,286047080.1,N
1502252775.7,286047082.5,N
1502252795.5,286047080.3,N
1502252815.4,286047080.7,N
1502252835.2,286047082.4,N
1502252855.0,286047082.2,N
1502252855.9,286047082.2,N
1502252875.8,286047081.3,N
1502252895.6,286047082.7,N
1502252915.4,286047080.0,N
1502252935.3,286047079.9,N
1502252955.1,286047081.4,N
1502252956.0,286047081.4,N
1502252975.8,286047085.1,N
1502252995.7,286047084.2,N
1502253015.5,286047082.2,N
1502253035.3,286047082.2,N
1502253055.1,286047081.9,N
1502253075.9,286047087.2,N
1502253095.7,286047086.1,N
1502253115.5,286047085.2,N
1502253135.4,286047083.8,N
1502253155.2,286047085.7,N
1502253175.0,286047085.6,N
1502253175.9,286047085.6,N
1502253195.8,286047083.4,N
1502253215.6,286047082.5,N
1502253235.4,286047082.5,N
1502253255.3,286047079.8,N
1502253275.1,286047080.1,N
1502253276.0,286047080.1,N
1502253295.8,286047080.8,N
1502253315.7,286047078.5,N
1502253335.5,286047079.6,N
1502253355.3,286047078.3,N
1502253375.1,286047076.9,N
1502253395.9,286047078.3,N
1502253415.7,286047077.0,N
1502253435.5,286047080.6,N
1502253455.4,286047082.4,N
1502253475.2,286047080.7,N
1502253495.0,286047081.0,N
1502253495.9,286047081.0,N
1502253515.8,286047079.9,N
1502253535.6,286047077.4,N
1502253555.4,286047075.0,N
1502253575.3,286047075.0,N
1502253595.1,286047074.0,N
1502253596.0,286047074.0,N
1502253615.8,286047072.1,N
1502253635.7,286047072.1,N
1502253655.5,286047074.2,N
1502253675.3,286047072.4,N
1502253695.1,286047072.4,N
1502253715.9,286047072.2,N
1502253735.7,286047075.4,N
1502253755.5,286047077.3,N
1502253775.4,286047081.2,N
1502253795.2,286047079.3,N
1502253815.0,286047078.8,N
1502253815.9,286047078.8,N
1502253835.8,286047077.8,N
1502253855.6,286047079.0,N
1502253875.4,286047079.6,N
1502253895.3,286047079.2,N
1502253915.1,286047077.3,N
1502253916.0,286047077.3,N
1502253935.8,286047075.3,N
1502253955.6,286047079.2,N
1502253975.5,286047077.3,N
1502253995.3,286047081.2,N
1502254015.1,286047082.0,N
1502254035.9,286047085.5,N
1502254055.7,286047082.8,N
1502254075.5,286047078.1,N
1502254095.4,286047082.0,N
1502254115.2,286047081.5,N
1502254135.0,286047082.4,N
1502254135.9,286047082.4,N
1502254155.8,286047082.0,N
1502254175.6,286047083.9,N
1502254195.4,286047082.1,N
1502254215.2,286047080.0,N
1502254235.1,286047081.1,N
1502254236.0,286047081.1,N
1502254255.8,286047079.6,N
1502254275.6,286047077.1,N
1502254295.5,286047077.0,N
1502254315.3,286047081.2,N
1502254335.1,286047080.4,N
1502254355.9,286047083.8,N
1502254375.7,286047083.7,N
1502254395.5,286047082.1,N
1502254415.4,286047081.4,N
1502254435.2,286047083.9,N
1502254455.0,286047085.7,N
1502254455.9,286047085.7,N
1502254475.8,286047083.0,N
1502254495.6,286047083.2,N
1502254515.4,286047084.3,N
1502254535.2,286047082.1,N
1502254555.1,286047084.3,N
1502254575.2,286047081.5,N
1502254595.9,286047083.6,N
1502254615.7,286047082.0,N
1502254635.5,286047083.2,N
1502254655.4,286047083.5,N
1502254675.2,286047085.8,N
1502254695.0,286047084.6,N
1502254695.9,286047084.6,N
1502254715.8,286047085.2,N
1502254735.6,286047082.9,N
1502254755.4,286047083.3,N
1502254775.3,286047084.1,N
1502254795.1,286047083.3,N
1502254796.0,286047083.3,N
